Regional Weather Roundup
Issued by NWS Upton, NY

Current Version | Previous Version | Graphics & Text | Print | Product List | Glossary Off
Versions: 1 2 3 4 5 6 7 8 9 10 11 12 13 14 15 16 17 18 19 20 21 22 23 24 25 26 27 28 29 30 31 32 33 34 35 36 37 38 39 40 41 42 43 44 45 46 47 48 49 50

000
ASUS41 KOKX 290409
RWROKX

REGIONAL WEATHER ROUNDUP
NATIONAL WEATHER SERVICE NEW YORK NY
1200 AM EDT SAT APR 29 2017

NOTE: "FAIR" INDICATES FEW OR NO CLOUDS BELOW 12,000 FEET WITH NO
SIGNIFICANT WEATHER AND/OR OBSTRUCTIONS TO VISIBILITY.

NYZ071-072-176-178-NJZ106-104-290500-
NEW YORK CITY METRO AREA

CITY           SKY/WX    TMP DP  RH WIND       PRES   REMARKS
Central Park   MOCLDY    75  45  34 CALM      30.06F
Wall St Helipt MOCLDY    69  48  47 W5        30.06R
Bronx Bot Gard   N/A     72  43  35 CALM      30.04F
LaGuardia APRT MOCLDY    74  46  36 S6        30.03S
Kennedy INTL   MOCLDY    61  55  81 SW3       30.05S
Breezy Point     N/A     64 N/A N/A SW6         N/A
Newark/Liberty CLOUDY    71  47  42 SW7       30.04R
Teterboro      CLOUDY    70  45  40 CALM      30.03R
$$

NYZ177-179-078>081-290500-
LONG ISLAND NEW YORK

CITY           SKY/WX    TMP DP  RH WIND       PRES   REMARKS
Jones Beach      N/A     61 N/A N/A SW7G13      N/A
Matinecock PT    N/A     68 N/A N/A S2          N/A
Farmingdale    CLEAR     60  53  77 CALM      30.05R
MacArthur/ISP  MOCLDY    59  55  87 S3        30.05R
Shirley        CLEAR     58  55  90 SW7       30.06R
Mt Sinai Harb    N/A     61 N/A N/A S8          N/A
Westhampton    CLEAR     56  53  90 SW7       30.07R
East Hampton     N/A     55  53  92 SW7       30.05R
Montauk          N/A     56  54  93 SW10      30.05
$$

NYZ052-065-067-290500-
HUDSON VALLEY

CITY           SKY/WX    TMP DP  RH WIND       PRES   REMARKS
White Plains   CLOUDY    63  51  65 W3        30.04R
Larchmont Harb   N/A     63 N/A N/A SW7         N/A
Croton O-T Hud   N/A     64 N/A N/A E2          N/A
Newburgh       CLEAR     68  50  52 CALM      30.05R
Montgomery     CLOUDY    63  53  70 S6        30.04R
Poughkeepsie   CLOUDY    71  46  40 S3        30.02R
Albany         MOCLDY    60  51  72 CALM      30.01R
$$

NJZ001-105-106-008-010-013-015-019>022-104-290500-
NEW JERSEY

CITY           SKY/WX    TMP DP  RH WIND       PRES   REMARKS
Newark/Liberty CLOUDY    71  47  42 SW7       30.04R
Teterboro      CLOUDY    70  45  40 CALM      30.03R
Caldwell       CLOUDY    65  50  58 S5        30.05R
Somerville     CLOUDY    61  52  72 CALM      30.03S
Linden           N/A     73  50  43 W3        30.04S
Perth Amboy      N/A     70 N/A N/A W5          N/A
Sussex         CLOUDY    58  52  80 CALM      30.07R
Andover          N/A     60  51  72 CALM      30.06R
Trenton        MOCLDY    69  56  62 S5        30.04F
Millville      CLEAR     67  66  97 CALM      30.06S
Atlantic City  PTCLDY    65  62  90 S6        30.06S
Wrightstown    PTCLDY    67  59  76 SW5       30.03S
Toms River     PTCLDY    68  63  84 S5        30.06S
Belmar         PTCLDY    69  57  65 S7        30.06S
$$

PAZ047>061-062-071-290500-
EASTERN PENNSYLVANIA

CITY           SKY/WX    TMP DP  RH WIND       PRES   REMARKS
Philadelphia   MOCLDY    69  58  67 S3        30.06R
Allentown      CLOUDY    61  51  70 N3        30.06R
Scranton       CLOUDY    65  41  41 E6        30.03F
$$

CTZ002-004>006-009-010-012-RIZ004-006-007-MAZ004-011-015-290500-
SOUTHERN NEW ENGLAND
 IN CT

CITY           SKY/WX    TMP DP  RH WIND       PRES   REMARKS
Bradley INTL   CLOUDY    67  56  67 SE5       30.02R
Hartford       PTCLDY    65  55  70 S7        30.01S
Danbury        PTCLDY    59  56  89 CALM      30.05R
Wtrbury/Oxford CLOUDY    66  50  55 CALM      30.06R
Bridgeport     PTCLDY    61  53  75 S5        30.03R
Meriden        CLOUDY    60  56  86 CALM      30.03R
New Haven      PTCLDY    57  52  83 CALM      30.02S
Chester          N/A     64  54  68 W5        30.03S
Groton         CLOUDY    52  50  93 SW5       30.03S
Wilimantic     MOCLDY    68  54  60 CALM      30.03R

 IN RI

CITY           SKY/WX    TMP DP  RH WIND       PRES   REMARKS
Providence     MOCLDY    61  55  81 S6        30.02S
Block Island   CLEAR     55  53  93 SW17      30.05
Westerly       PTCLDY    56  54  93 S5        30.05S
 IN MA

CITY           SKY/WX    TMP DP  RH WIND       PRES   REMARKS
Boston         PTCLDY    69  58  67 SW9       30.00S
Worcester      MOCLDY    66  52  60 W10       30.04R
Westfield      PTCLDY    60  56  86 CALM      30.01R
Provincetown   CLOUDY    55  52  89 SW12      30.02S
Nantucket      FOG       51  50  96 W12       30.05F VSB 1/2
$$

ANZ330-335-338-340-345-350-353-355-290500-
COASTAL MARINE OBSERVATIONS


STATION/POSITION TIME  SKY/WX   TEMP    WIND        PRES    VSBY  WAVE
                                AIR SEA DIR/SP/G                  HT/PER
                 (UTC)          (F)     (DEG/KT/KT) (MB)    (MI)  (FT/S)
NY HARB ENTRANCE 0250            56 50  210/ 12/ 12 1017.2          4/ 8
20 S FIRE ISLAND 0350            53 49  220/ 10/ 12 1017.5          4/ 8
GREAT SOUTH BAY  0330            59 59  240/  8/  8   N/A
23 SSW MONTAUK P 0250            52 48              1017.9          5/ 8
15 E BARNEGAT LI 0300               53                N/A           4/ 8
HUDSON CANYON    0250            52 49  210/ 14/ 16 1018.9          5/ 9
KINGS POINT      0348            67 52  180/  5/  6 1016.9
EXECUTION ROCKS  NOT AVBL
CENTRAL LI SOUND NOT AVBL
EASTERN LI SOUND NOT AVBL
ROBBINS REEF     0348            70     180/ 10/ 12 1017.6
$$


>>>>>>>>>>>>>>>>>>>>>>>>>>>> KEY <<<<<<<<<<<<<<<<<<<<<<<<<<<
>                                                          <
>     SKY/WX - Sky Condition/Present Weather               <
>     TMP    - Temperature in Fahrenheit                   <
>     DP     - Dew Point in Fahrenheit                     <
>     RH     - Relative Humidity in Percent                <
>     WIND   - Direction (from) and Speed in MPH           <
>     PRES   - Mean Sea Level Pressure (inches of Hg)      <
>     WCI    - Wind Chill Index                            <
>     VSB    - VISIBILITY IN MILES                         <
>     HX     - HEAT INDEX                                  <
>     TC     - TEMPERATURE IN CELSIUS                      <
>     VRB    - VARIABLE WIND DIRECTION                     <
>                                                          <
>>>>>>>>>>>>>>>>>>>>>>>>>>>> KEY <<<<<<<<<<<<<<<<<<<<<<<<<<<



USA.gov is the U.S. government's official web portal to all federal, state and local government web resources and services.